Portada
METAR-TAF:

METAR-TAF

Aeroports :

Aeroport de Castelló

Castelló de la Plana, Espanya

latitud: 40-12-35N, longitud: 0-04-11E, altitud: 360 m

Observació

L'informe es va fer fa 27 minuts, a les 10:00 UTC
Vent 4 kt del Nord/Nord-Est, variant entre Nord i Est/Nord-Est
Temperatura 10°C
Humitat 87%
Pressió 1020 hPa
Visibilitat: 9000 m
Cel cobert a una alçada de 1500 ft

METAR: LECH 251000Z AUTO 03004KT 010V070 9000 OVC015 10/08 Q1020

Hora: 11:27 (10:27 UTC)


TAF: manca

Observacions i pronòstics meteorològics de més de 4000 aeroports (METAR i TAF).

Les estacions disponibles són els punts grocs i vermells al mapa.

Posi el ratolí al punt desitjat per veure el nom de l'estació.

Feu clic per veure les observacions i els pronòstics meteorològics.

Per canviar el mapa: feu clic els botons verds amb una creu de color negre per apropar; al botó verd amb un guió per allunyar la imatge; o en les fletxes verdes per a mapes adjacents.


METAR-TAF: